This demonstration page uses our WeatherBlox Daily Observations layout. Learn more.

Left ArrowRight Arrow

Hourly Observations for December 8, 2020

Temp ( °F °C ) Dew Point ( °F °C ) Humidity (%) Winds ( mph kmh ) Pressure ( in mb ) Visibility ( mi km ) Precip ( " mm )
12:52 am 00:52 Clear 27 -2.8 23 -5 85 85 NNW 5 7 30.11 1020 10 16 0.00 0.00
1:52 am 01:52 Clear 27 -2.8 21 -6.1 78 78 Calm 30.11 1020 10 16 0.00 0.00
2:52 am 02:52 Clear 27 -2.8 21 -6.1 78 78 Calm 30.13 1020 10 16 0.00 0.00
3:52 am 03:52 Clear 26 -3.3 23 -5 88 88 S 3 6 30.13 1020 10 16 0.00 0.00
4:52 am 04:52 Clear 25 -3.9 21 -6.1 85 85 ESE 6 9 30.12 1020 10 16 0.00 0.00
5:52 am 05:52 Clear 26 -3.3 22 -5.6 84 84 SE 5 7 30.13 1020 10 16 0.00 0.00
6:52 am 06:52 Mostly Cloudy 26 -3.3 23 -5 88 88 SSE 3 6 30.14 1021 10 16 0.00 0.00
7:52 am 07:52 Mostly Cloudy 24 -4.4 22 -5.6 91 91 SSE 7 11 30.13 1020 10 16 0.00 0.00
8:52 am 08:52 Mostly Cloudy 29 -1.7 25 -3.9 85 85 SE 3 6 30.14 1021 10 16 0.00 0.00
9:52 am 09:52 Mostly Cloudy 34 1.1 27 -2.8 76 76 SE 6 9 30.13 1020 10 16 0.00 0.00
10:52 am 10:52 Mostly Cloudy 40 4.4 27 -2.8 60 60 SSE 7 11 30.09 1019 10 16 0.00 0.00
11:52 am 11:52 Mostly Cloudy 46 7.8 26 -3.3 46 46 SSE 7 11 30.07 1018 10 16 0.00 0.00
12:52 pm 12:52 Mostly Cloudy 51 10.6 27 -2.8 39 39 SSW 7 11 30.01 1016 10 16 0.00 0.00
1:52 pm 13:52 Mostly Cloudy 55 12.8 27 -2.8 34 34 SW 8 13 29.99 1016 10 16 0.00 0.00
2:52 pm 14:52 Mostly Cloudy 57 13.9 29 -1.7 34 34 WSW 6 9 29.97 1015 10 16 0.00 0.00
3:52 pm 15:52 Mostly Cloudy 56 13.3 30 -1.1 37 37 SW 3 6 29.97 1015 10 16 0.00 0.00
4:52 pm 16:52 Mostly Cloudy 52 11.1 26 -3.3 37 37 Calm 29.98 1015 10 16 0.00 0.00
5:52 pm 17:52 Cloudy 45 7.2 28 -2.2 52 52 Calm 29.99 1016 10 16 0.00 0.00
6:52 pm 18:52 Cloudy 42 5.6 29 -1.7 60 60 ESE 3 6 29.98 1015 10 16 0.00 0.00
7:52 pm 19:52 Cloudy 39 3.9 29 -1.7 67 67 ESE 7 11 29.98 1015 10 16 0.00 0.00
8:52 pm 20:52 Cloudy 41 5 29 -1.7 62 62 SSE 6 9 29.97 1015 10 16 0.00 0.00
9:52 pm 21:52 Cloudy 41 5 29 -1.7 62 62 S 6 9 29.96 1015 10 16 0.00 0.00
10:52 pm 22:52 Cloudy 42 5.6 29 -1.7 60 60 SE 7 11 29.95 1014 10 16 0.00 0.00
11:52 pm 23:52 Cloudy 40 4.4 29 -1.7 65 65 SE 6 9 29.95 1014 10 16 0.00 0.00

Powered by AerisWeather